Showing default

CARTOSAT 3, 44804

Orbit data source: Space-Track

CARTOSAT 3, 44804 is a payload satellite owned by ISRO (IN) in SSO that was launched on Wed, 27 Nov 2019 UTC via a PSLV-XL launch vehicle from the Sirharikota (SRI). Payload-class satellites include a variety of spacecraft equipped with specific instruments for various scientific and technological missions. These include communications satellites like Starlink; space stations such as the ISS; scientific satellites like the Hubble; Earth observation satellites from companies like Planet Labs, Umbra, and HawkEye 360; GPS; miniature CubeSats for education and research; and military/defense satellites.

Loading next visibility...
Identifier
44804, 2019-081A
Orbit
SSO
Country
Flag of ININ / IND
Related business
Manufacturer
ISRO
Mission
Operational Defense Imaging
Bus & Motor
IRS-2, AOCS
Mass
1,625 kg wet, ~1,500 kg dry
Launch date (UTC)
2019-11-27 (6 years ago)
Launch vehicle
PSLV-XL
Launch site
Sirharikota (SRI)
Object type
Payload
Rocket body
Debris
Shape & HBR
Hex Cyl + 2 Pan, Unknown HBR
Radar Cross Section
9.780 m², Large (>1 m²)

Expand to show TLE details & history
Last TLE update: 19 hours ago

TLE from 19 hours ago
0 CARTOSAT 3
1 44804U 19081A   25292.29253397  .00009504  00000-0  45292-3 0  9992
2 44804  97.4667 352.5400 0012772 273.9903  85.9872 15.19258457326896
Epoch: 2025-10-19T07:01Z
TLE epoch observation values (Epoch: 2025-10-19T07:01:14.935Z)
Latitude
0.00006°
Longitude
-140.78353°
Altitude
510.564 km
Speed
7.609 km/s
True Right ascension
23h 30m 09s
True Declination
0° 00' 00"
Sunlit
Object was in full shadow at epoch
Visualization orbit readout
Latitude
Unknown
Longitude
Unknown
Altitude
Unknown
Speed
Unknown
Apparent Right ascension
Unknown
Apparent Declination
Unknown
Sunlit
N/A
Visualization observer readout
Local Sidereal Time
21:16:12
Azimuth
Unknown
Elevation
Unknown
Doppler factor
Unknown
Orbital elements
Apogee altitude
513.841 km
Perigee altitude
496.259 km
Semi-major axis
6,883.187 km
Eccentricity
0.00128
Inclination
97.4667°
RAAN
352.54°
Arg. of periapsis
273.9903°
True anomaly
86.13321°
Mean anomaly
85.9872°
Eccentric anomaly
86.06021°
Mean motion
3.80066 °/min
Orbital period
94.72 mins
BSTAR
0.00045292
Loading maneuver chart data...
Computing Atmospheric mass density...
Loading historical data...
Loading historical data...
Loading historical data...
Loading historical data...
Loading historical data...
Loading historical data...
Loading historical data...

Documentation

Showing up to 5 results
|